Printer-friendly version

IAU Minor Planet Center

Minor Planet Center

MPEC 2005-O09 : COMET C/2005 N1 (JUELS-HOLVORCEM)

The following Minor Planet Electronic Circular may be linked-to from your own Web pages, but must not otherwise be redistributed electronically.


Read MPEC 2005-O08 Read MPEC 2005-O10


M.P.E.C. 2005-O09                                Issued 2005 July 18, 00:31 UT

     The Minor Planet Electronic Circulars contain information on unusual
         minor planets and routine data on comets.  They are published
   on behalf of Commission 20 of the International Astronomical Union by the
          Minor Planet Center, Smithsonian Astrophysical Observatory,
                          Cambridge, MA 02138, U.S.A.

                  Supported in part by the Brinson Foundation
             Prepared using the Tamkin Foundation Computer Network

                              MPC@CFA.HARVARD.EDU
          URL http://cfa-www.harvard.edu/iau/mpc.html  ISSN 1523-6714

                       COMET C/2005 N1 (JUELS-HOLVORCEM)

Observations:
    CK05N010  C2005 07 07.40697 03 36 43.16 +38 11 05.5          14.6 T EO009G99
    CK05N010  C2005 07 07.40898 03 36 43.65 +38 11 10.0          14.6 T EO009G99
    CK05N010  C2005 07 07.41112 03 36 44.21 +38 11 15.0          14.4 T EO009G99
    CK05N010  C2005 07 07.42137 03 36 46.87 +38 11 39.2          14.5 T EO009G99
    CK05N010  C2005 07 07.42557 03 36 47.95 +38 11 48.6          14.3 T EO009G99
    CK05N010  C2005 07 12.15245 03 58 26.09 +41 14 10.0          14.7 N EO009J76
    CK05N010  C2005 07 12.15321 03 58 26.33 +41 14 11.8          14.7 N EO009J76
    CK05N010  C2005 07 12.15395 03 58 26.54 +41 14 13.5          14.6 N EO009J76
    CK05N010  C2005 07 16.06059 04 18 30.29 +43 39 50.0          15.0 N EO009213
    CK05N010  C2005 07 16.06112 04 18 30.38 +43 39 51.5          15.0 N EO009213
    CK05N010  C2005 07 16.06138 04 18 30.47 +43 39 52.0          15.0 N EO009213

Observer details:
213 Observatorio Montcabre.  Observer R. Naves.  Measurer M. Campas.  0.30-m
    f/10 Schmidt-Cassegrain + CCD.
G99 NF Observatory, Silver City.  Observer A. W. Neely.  Measurer
    P. R. Holvorcem.  0.6-m f/10 reflector + CCD.
J76 La Murta.  Observers S. Pastor, J. A. Reyes.  0.40-m f/6.3
    Schmidt-Cassegrain + CCD.

Orbital elements:
    C/2005 N1 (Juels-Holvorcem)
T 2005 Aug. 21.985 TT                                   MPC
q   1.12610              (2000.0)            P               Q
                   Peri.   79.982       +0.138772       -0.989344
                   Node     3.241       +0.269487       -0.005072
e   1.0            Incl.   51.169       +0.952953       +0.145506
From 36 observations 2005 July 3-16.

Ephemeris:
    C/2005 N1 (Juels-Holvorcem)
Date    TT    R. A. (2000) Decl.     Delta      r     Elong.  Phase   m1    m2
2005 07 09    03 43.70   +39 13.0    1.787    1.327    47.3    34.2  14.0
2005 07 14    04 07.65   +42 23.9    1.737    1.288    47.4    35.5  13.8
2005 07 19    04 35.03   +45 24.1    1.694    1.251    47.3    36.6  13.6
2005 07 24    05 06.20   +48 05.0    1.661    1.219    46.9    37.5  13.5
2005 07 29    05 41.20   +50 16.9    1.638    1.191    46.3    38.1  13.3
2005 08 03    06 19.52   +51 49.8    1.625    1.167    45.6    38.4  13.2
2005 08 08    06 59.94   +52 36.0    1.621    1.149    44.7    38.4  13.2
2005 08 13    07 40.65   +52 32.2    1.627    1.135    43.7    38.0  13.1
2005 08 18    08 19.78   +51 40.3    1.642    1.128    42.5    37.4  13.1
2005 08 23    08 55.86   +50 07.2    1.666    1.126    41.4    36.4  13.1
2005 08 28    09 28.13   +48 02.3    1.695    1.130    40.2    35.2  13.2
2005 09 02    09 56.47   +45 35.2    1.731    1.140    39.0    33.8  13.3
2005 09 07    10 21.15   +42 54.7    1.771    1.155    37.9    32.4  13.4
2005 09 12    10 42.60   +40 07.3    1.814    1.176    36.9    30.9  13.5
2005 09 17    11 01.34   +37 18.2    1.859    1.202    36.0    29.4  13.6
2005 09 22    11 17.82   +34 30.8    1.906    1.232    35.3    28.1  13.8
2005 09 27    11 32.43   +31 47.3    1.952    1.266    34.8    26.9  14.0

Brian G. Marsden             (C) Copyright 2005 MPC           M.P.E.C. 2005-O09

Read MPEC 2005-O08 Read MPEC 2005-O10


Our Web policy. Index to the CBAT/MPC/ICQ pages.


Valid HTML 4.01!